Location: Peterborough
(44.3091°N, 78.3197°W)
Time: 13:28:28
(UTC-04:00)

Envisat - Pass Details

Date: 21 April 2026
Orbit: 761 x 762 km, 98.4° (Epoch: 17 May)

Event Time Altitude Azimuth Distance (km) Brightness Sun altitude
Rises 05:10:34 0° 0° (N) 3,234 6.7 -12.1°
Reaches altitude 10° 05:13:21 10° 346° (NNW) 2,303 5.7 -11.7°
Maximum altitude 05:17:06 21° 298° (WNW) 1,646 4.4 -11.1°
Enters shadow 05:20:06 13° 256° (WSW) 2,083 4.6 -10.6°
